Change the Weather History Date:

Friday, October 5, 2012

  Actual Average Record
Temperature  
Mean Temperature 75 °F 67 °F  
Max Temperature 85 °F 84 °F 98 °F (1980)
Min Temperature 65 °F 50 °F 33 °F (1969)
Degree Days  
Heating Degree Days 0    
Month to date heating degree days 0  
Since 1 July heating degree days 0  
Cooling Degree Days 10    
Month to date cooling degree days 63  
Year to date cooling degree days 2237  
Growing Degree Days 24 (Base 50)    
Moisture  
Dew Point 39 °F    
Average Humidity 36    
Maximum Humidity 56    
Minimum Humidity 16    
Precipitation  
Precipitation 0.00 in 0.01 in 0.19 in (2011)
Month to date precipitation 0.00 0.04  
Year to date precipitation 1.74 5.29  
Since 1 July precipitation 0.04 0.38  
Snow  
Snow 0.00 in - 0.00 in ()
Month to date snowfall 0.0  
Since 1 July snowfall 0.0  
Since 1 September snowfall 0.0  
Snow Depth 0.00 in    
Sea Level Pressure  
Sea Level Pressure 30.00 in    
Wind  
Wind Speed 20 mph (West)    
Max Wind Speed 31 mph    
Max Gust Speed 39 mph    
Visibility 10 miles    
Events      
T = Trace of Precipitation, MM = Missing Value Source: NWS Daily Summary

Daily Weather History Graph

Daily Weather History Graph

Search for Another Location

Airport or City:

Trip Planner

Search our weather history database for the weather conditions in past years. The results will help you decide how hot, cold, wet, or windy it might be!

Date:

Astronomy

Oct. 05, 2012 Rise Set
Actual Time 6:51 AM PDT 6:30 PM PDT
Civil Twilight 6:25 AM PDT 6:55 PM PDT
Nautical Twilight 5:56 AM PDT 7:24 PM PDT
Astronomical Twilight 5:27 AM PDT 7:54 PM PDT
Moon 10:09 PM PDT (10/5) 11:51 AM PDT (10/5)
Length of Visible Light 12h 29m
Length of Day
11h 39m
Waning Gibbous, 73% of the Moon is Illuminated
Oct 5
Waning Gibbous
Oct 8
Last Quarter
Oct 15
New
Oct 21
First Quarter
Oct 29
Full

Hourly Weather History & Observations

Time (PDT) Temp. Dew Point Humidity Pressure Visibility Wind Dir Wind Speed Gust Speed Precip Events Conditions
12:56 AM 71.1 °F 39.9 °F 32% 30.01 in 10.0 mi West 21.9 mph 28.8 mph N/A   Clear
1:56 AM 70.0 °F 43.0 °F 38% 30.01 in 10.0 mi West 21.9 mph 31.1 mph N/A   Clear
2:56 AM 68.0 °F 45.0 °F 43% 30.00 in 10.0 mi West 21.9 mph 27.6 mph N/A   Clear
3:56 AM 66.0 °F 46.0 °F 48% 30.00 in 10.0 mi West 23.0 mph 32.2 mph N/A   Clear
4:56 AM 66.0 °F 48.0 °F 52% 30.01 in 10.0 mi West 24.2 mph 31.1 mph N/A   Clear
5:56 AM 66.0 °F 48.0 °F 52% 30.02 in 10.0 mi West 19.6 mph - N/A   Clear
6:56 AM 64.9 °F 48.0 °F 54% 30.04 in 10.0 mi West 16.1 mph - N/A   Clear
7:56 AM 66.9 °F 45.0 °F 45% 30.04 in 10.0 mi West 17.3 mph - N/A   Clear
8:56 AM 73.0 °F 39.9 °F 30% 30.05 in 10.0 mi West 17.3 mph - N/A   Clear
9:56 AM 77.0 °F 39.0 °F 25% 30.05 in 10.0 mi West 18.4 mph - N/A   Clear
10:56 AM 80.1 °F 39.0 °F 23% 30.04 in 10.0 mi West 18.4 mph - N/A   Clear
11:56 AM 82.9 °F 37.9 °F 20% 30.02 in 10.0 mi West 17.3 mph - N/A   Clear
12:56 PM 84.0 °F 36.0 °F 18% 29.99 in 10.0 mi West 19.6 mph 28.8 mph N/A   Clear
1:56 PM 84.0 °F 35.1 °F 17% 29.97 in 10.0 mi West 24.2 mph - N/A   Clear
2:56 PM 84.0 °F 36.0 °F 18% 29.97 in 5.0 mi West 29.9 mph 39.1 mph N/A   Haze
3:56 PM 84.0 °F 34.0 °F 17% 29.95 in 10.0 mi West 25.3 mph - N/A   Clear
4:56 PM 81.0 °F 34.0 °F 18% 29.95 in 10.0 mi West 27.6 mph 31.1 mph N/A   Clear
5:56 PM 75.0 °F 35.1 °F 23% 29.96 in 10.0 mi West 23.0 mph - N/A   Clear
6:56 PM 72.0 °F 36.0 °F 27% 29.97 in 10.0 mi West 18.4 mph 27.6 mph N/A   Clear
7:56 PM 71.1 °F 36.0 °F 28% 29.98 in 10.0 mi West 13.8 mph - N/A   Clear
8:56 PM 69.1 °F 37.9 °F 32% 29.98 in 10.0 mi West 16.1 mph - N/A   Clear
9:56 PM 69.1 °F 35.1 °F 29% 29.97 in 10.0 mi West 15.0 mph 24.2 mph N/A   Clear
10:56 PM 68.0 °F 35.1 °F 30% 29.97 in 10.0 mi West 9.2 mph - N/A   Clear
11:56 PM 66.9 °F 36.0 °F 32% 29.96 in 10.0 mi West 13.8 mph - N/A   Clear